Wind_Speed
115 115 115 115 115 116 116 115 115 115 115 115 114 114 114 114 114 113 113 114 114 114 114 114 115 115 115 115 115 115 115 115 114 114 114 114 114 114 113 114 113 114 114 113 113 113 113 113 112 112 112 111 110 109 108 108 107 106 105 104 102 100 99 100 101 102 101 100 99 97 96 94 92 90 88 86 84 83 81 79 76 75 73 72 71 69
113 114 114 114 114 115 115 114 113 113 113 113 112 112 111 111 111 112 112 112 112 112 112 113 113 113 113 113 114 114 114 114 114 113 113 113 113 113 113 113 113 113 113 113 113 113 113 113 112 112 112 111 110 109 108 108 107 106 105 104 102 100 99 100 101 101 99 98 97 97 96 95 93 92 90 88 86 84 82 80 78 76 74 73 72 70
112 112 112 112 112 112 113 112 112 111 111 111 111 110 110 110 110 111 111 111 111 111 111 111 111 112 112 112 112 112 112 113 113 113 112 112 112 112 112 112 112 112 112 112 112 112 112 112 112 112 111 111 110 109 108 107 106 105 105 103 102 101 100 100 101 100 98 96 96 96 96 95 94 93 92 90 87 85 83 81 79 77 75 74 73 71
110 110 110 110 110 110 110 110 110 110 110 110 110 110 110 110 110 110 110 110 110 110 110 110 110 110 111 111 111 111 111 111 112 112 112 111 111 111 111 111 111 111 111 111 111 111 111 111 111 110 110 110 109 108 107 107 106 105 104 103 102 101 100 100 100 99 97 96 95 95 95 95 94 94 93 91 89 87 84 82 80 78 76 75 73 72
108 108 108 108 109 109 109 109 109 109 109 109 110 110 110 110 110 110 110 110 110 110 110 110 110 110 110 110 110 110 110 111 111 111 111 111 111 110 110 110 110 110 110 110 110 110 109 109 109 109 108 108 107 107 106 105 104 104 103 102 101 100 100 100 99 98 97 96 95 94 94 93 93 93 93 92 90 88 85 83 81 79 77 75 74 72
108 107 107 107 108 108 108 108 109 109 109 110 110 110 110 110 110 110 110 110 110 110 110 109 109 109 109 110 110 110 110 110 110 110 110 110 110 110 110 109 109 109 109 109 108 108 108 108 107 107 107 106 106 105 104 104 103 102 101 101 100 99 99 99 98 97 96 95 94 94 93 92 92 92 91 91 89 88 85 83 81 79 77 76 74 72
107 107 107 107 107 107 108 108 109 109 109 110 110 110 110 110 110 110 110 110 110 109 109 109 109 109 109 109 109 109 109 110 110 110 110 110 109 109 109 109 109 109 108 108 108 107 107 106 106 105 105 105 104 103 103 102 102 101 100 99 99 98 98 97 97 96 95 94 94 93 92 91 90 90 89 89 88 86 85 83 81 79 78 76 74 72
108 107 107 107 107 107 108 108 109 109 109 110 110 110 110 110 110 110 110 110 109 109 109 109 109 109 109 109 109 109 109 109 109 110 110 109 109 109 109 109 108 108 108 107 107 106 106 105 105 104 104 103 103 102 102 101 100 99 99 98 97 97 96 96 95 94 94 93 92 91 90 89 89 88 87 86 86 85 83 82 80 79 77 75 73 71
108 108 108 108 108 108 108 109 109 109 109 110 110 110 110 110 110 110 110 110 110 110 109 109 109 110 110 110 109 110 110 110 110 110 110 110 109 109 109 108 108 108 107 107 106 106 105 105 104 103 103 102 102 101 101 100 99 98 97 96 96 95 94 94 93 92 91 91 90 89 89 88 87 86 85 84 84 83 82 81 79 78 76 74 73 70
108 108 108 108 108 108 109 109 109 109 109 110 110 110 110 110 110 110 110 110 110 110 110 110 110 110 110 110 110 110 110 110 110 110 110 109 109 109 108 108 107 107 106 106 105 105 104 104 103 102 102 101 100 100 99 99 98 97 96 95 94 93 93 92 91 90 89 88 88 87 87 86 86 85 84 83 82 81 80 79 78 77 75 73 71 69
108 108 108 109 109 109 109 109 109 109 109 110 110 110 110 110 110 110 110 111 111 111 110 110 110 110 110 110 110 110 110 110 110 109 109 109 108 108 107 107 106 106 105 104 104 103 103 102 102 101 100 100 99 99 98 97 96 96 95 94 93 92 91 90 89 88 87 86 86 85 85 84 84 83 83 82 81 80 79 78 77 75 74 72 70 68
109 109 109 109 109 109 109 109 109 109 109 110 110 110 110 110 110 110 110 111 111 111 111 111 110 110 110 110 110 110 109 109 109 109 108 108 107 106 106 105 105 104 103 103 102 102 101 100 100 99 99 98 97 97 96 95 95 94 93 92 91 90 89 88 87 86 86 85 84 83 83 83 82 82 81 81 80 79 78 76 75 74 72 71 69 68
109 109 109 109 109 109 109 109 110 110 110 110 110 111 111 111 110 110 110 110 110 110 110 110 110 110 109 109 109 108 108 108 107 107 106 106 105 104 104 103 102 102 101 100 100 100 99 99 98 98 97 96 96 95 94 93 93 92 91 90 89 89 88 87 86 85 84 83 83 82 82 81 81 80 80 79 78 77 76 75 74 73 71 70 68 67
108 108 109 109 109 109 109 110 110 110 110 111 111 111 111 110 110 110 110 110 110 109 109 108 108 108 108 107 107 106 106 105 105 105 104 104 103 102 101 101 100 99 99 98 98 98 97 97 96 96 95 94 94 93 92 92 91 90 89 89 88 87 86 85 85 84 83 82 81 81 80 80 79 79 78 78 77 76 75 74 73 72 70 69 68 67
108 108 108 109 109 109 110 110 110 111 111 111 111 110 110 110 110 109 109 109 108 107 107 106 106 105 105 105 104 104 103 103 102 102 101 101 100 100 99 98 98 97 97 96 96 96 96 95 94 94 93 93 92 92 91 90 90 89 88 87 87 86 85 84 83 83 82 81 80 80 79 79 78 78 77 76 76 75 74 73 72 71 70 69 68 67
108 108 108 109 109 109 110 110 110 110 110 110 110 109 109 109 108 108 107 107 106 105 104 103 103 103 102 102 102 101 101 101 100 100 99 99 98 98 97 96 96 96 95 95 95 95 94 94 94 93 93 92 92 91 90 89 89 88 87 86 86 85 84 83 82 82 81 80 80 79 79 78 77 77 76 75 75 74 73 73 72 71 70 69 68 67
107 108 108 108 109 109 109 109 109 109 109 108 108 107 107 106 106 105 104 104 103 102 102 101 100 100 100 100 100 100 99 99 98 98 97 97 97 97 96 95 95 95 95 95 94 94 94 94 94 93 93 92 91 91 90 89 88 88 87 86 85 84 84 83 82 81 81 80 80 79 78 78 77 76 76 75 75 74 73 73 72 71 70 69 69 68
107 107 108 108 108 108 108 107 107 107 107 106 106 105 104 104 103 103 102 102 101 100 100 99 98 98 98 98 99 99 99 98 98 97 97 97 97 97 96 95 95 95 95 95 95 95 95 94 94 94 93 93 92 91 90 90 89 88 87 86 86 85 84 83 83 82 81 81 80 79 79 78 77 77 76 75 75 74 74 73 73 72 71 70 70 69
106 106 106 106 106 106 106 105 105 104 104 104 103 103 102 102 101 101 100 100 99 99 98 98 97 97 97 97 98 98 98 98 98 97 97 97 97 97 96 96 95 95 95 95 95 96 95 95 95 95 94 93 93 92 91 90 89 89 88 87 86 86 85 84 84 83 82 82 81 80 80 79 78 78 77 76 76 75 75 74 74 73 73 72 71 71
104 104 104 104 103 103 103 103 102 102 101 101 101 100 100 100 100 100 100 99 99 98 98 97 97 97 97 97 97 98 98 98 98 98 97 97 97 97 96 96 96 96 96 96 96 96 96 96 96 95 95 94 94 93 92 91 91 90 89 88 88 87 86 86 85 84 84 83 83 82 81 81 80 79 78 78 77 76 76 76 75 75 74 74 73 73
102 102 101 101 100 100 100 100 100 100 100 100 99 99 100 100 99 99 99 99 99 98 98 98 97 97 97 97 97 98 98 98 98 98 98 97 97 97 97 97 96 97 97 97 97 97 97 97 97 97 96 96 95 95 94 93 92 91 91 90 89 88 88 87 87 86 86 85 84 84 83 82 82 81 80 79 79 78 78 77 77 77 76 76 75 75
99 99 99 98 98 98 98 99 99 99 99 99 99 99 99 99 99 99 99 99 99 98 98 98 98 98 98 98 98 99 99 99 99 99 99 98 98 98 98 97 97 98 98 98 98 98 98 99 98 98 98 97 97 96 96 95 94 94 93 92 91 91 90 89 89 88 87 87 86 86 85 84 84 83 82 81 81 80 80 79 79 79 78 78 77 77
97 97 97 97 97 97 97 98 98 98 98 98 98 99 99 99 98 99 99 99 99 99 99 99 99 99 99 99 100 100 101 101 101 101 100 100 100 100 99 99 99 99 100 100 100 100 100 101 101 101 100 100 99 99 98 98 97 96 96 95 94 93 93 92 91 90 90 89 88 88 87 86 86 85 84 83 83 82 81 81 81 80 80 80 79 79
96 96 96 96 96 96 97 97 97 98 98 98 98 98 98 98 98 99 99 99 99 100 100 100 100 100 101 101 101 102 103 103 103 103 102 102 102 102 101 101 101 102 102 103 102 102 102 103 103 103 103 103 102 102 102 101 100 99 99 98 97 96 96 95 94 93 92 92 91 90 89 89 88 87 86 85 85 84 84 83 83 83 82 82 81 81
95 95 96 96 96 96 96 97 97 97 98 98 98 98 99 99 99 99 100 100 101 101 101 101 101 102 102 103 103 104 105 106 105 105 105 105 105 105 104 103 103 104 105 105 104 104 104 105 105 105 105 105 105 105 105 104 104 103 102 101 101 100 99 98 97 97 96 95 94 93 92 91 90 90 89 88 87 87 86 86 85 85 84 84 83 83
95 95 96 96 96 96 97 97 98 98 98 99 99 99 100 100 100 101 102 102 102 102 102 103 103 104 104 105 105 107 108 108 108 108 108 108 108 107 107 107 106 107 107 107 107 106 106 107 108 108 108 108 108 108 108 108 107 107 106 105 104 103 102 102 101 100 99 98 97 96 95 94 93 92 91 90 90 89 88 88 88 87 86 86 85 85
95 96 96 96 97 97 98 99 99 100 100 101 101 101 101 102 102 103 104 104 104 104 104 105 106 106 106 107 107 108 109 110 110 110 110 109 109 110 110 110 109 109 109 110 109 109 109 109 110 110 111 111 111 111 111 111 111 110 110 109 108 107 106 105 104 103 102 102 101 100 99 98 97 95 94 93 92 92 91 91 90 90 89 88 88 88
96 96 97 98 98 99 100 100 101 102 102 103 103 103 103 104 104 105 106 106 106 106 106 107 108 108 108 109 109 110 111 111 112 112 111 111 111 111 112 112 111 111 111 112 112 111 111 112 112 113 113 114 114 114 114 114 114 113 113 112 112 111 110 109 108 107 106 105 104 103 102 101 100 99 98 96 95 95 94 93 93 92 92 91 91 90
97 98 99 99 100 101 101 102 103 104 104 105 105 105 106 106 106 107 108 108 108 108 108 109 109 109 110 110 110 111 112 113 113 113 112 112 112 112 113 113 113 113 113 113 113 113 113 114 114 115 115 116 116 116 116 116 116 116 116 115 115 114 113 112 111 110 109 108 107 106 106 104 103 102 101 100 99 98 97 97 96 95 95 94 93 93
99 100 101 101 102 103 103 104 105 105 106 106 107 107 107 108 108 108 109 109 109 109 110 110 110 110 110 111 111 112 113 114 114 114 113 112 113 113 114 114 114 114 114 114 114 114 115 115 116 116 117 117 117 118 118 118 118 118 118 118 117 117 116 115 114 113 112 111 110 110 109 108 107 106 105 104 103 102 101 100 99 98 97 97 96 96
101 102 103 103 104 105 105 106 106 107 107 108 108 108 109 109 109 109 109 110 110 110 110 110 111 111 111 111 112 113 113 114 114 113 113 112 113 114 114 114 114 114 114 114 114 115 116 116 117 117 117 118 118 119 119 119 119 120 119 119 119 119 118 117 117 116 115 114 113 112 112 111 110 109 108 107 106 105 104 103 102 101 100 100 99 98
103 104 105 105 106 106 107 107 107 108 108 108 109 109 109 109 109 109 109 109 109 109 109 110 110 110 110 110 111 111 112 113 113 112 111 111 112 112 113 113 113 114 114 113 113 114 115 116 116 116 117 117 118 119 119 119 120 120 120 120 120 119 119 119 118 118 117 116 116 115 114 113 112 112 111 110 109 108 108 107 106 105 104 103 102 101
104 105 106 106 107 107 108 108 108 108 109 109 109 109 109 109 109 108 108 108 108 108 108 108 108 108 108 108 108 109 109 110 110 109 109 109 110 110 111 111 111 112 112 112 111 111 112 113 114 115 115 116 117 117 118 118 118 119 119 119 119 119 119 119 119 118 118 117 117 116 116 115 114 114 113 113 112 111 110 110 109 108 107 106 105 104
105 106 106 107 107 108 108 108 108 108 108 108 108 108 108 108 107 107 107 106 106 106 106 105 105 105 105 105 105 106 106 106 106 106 105 106 106 107 107 108 108 109 109 109 109 109 109 110 111 112 113 114 114 115 116 116 116 116 116 117 117 118 118 118 118 118 118 117 117 117 116 116 116 115 115 114 114 113 112 112 111 110 109 109 108 107
106 106 107 107 108 108 108 108 108 108 108 108 107 107 107 106 106 105 105 104 104 104 103 103 103 103 102 102 102 103 103 103 102 102 102 102 102 103 104 104 104 105 105 105 106 106 106 107 107 108 109 110 111 112 113 113 113 113 114 114 114 115 116 116 116 116 116 116 116 116 116 116 115 115 115 114 114 114 113 113 113 112 112 111 110 110
106 107 107 107 108 108 108 108 108 107 107 107 106 106 105 105 104 104 103 103 102 102 101 101 100 100 100 100 99 99 100 99 99 99 98 98 98 99 100 100 100 101 101 101 102 102 102 103 103 104 105 106 107 108 109 109 109 110 110 110 111 111 112 112 112 113 113 113 114 114 114 114 114 114 114 114 113 113 113 113 113 113 113 113 112 112
106 107 107 107 107 107 107 107 106 106 106 105 105 104 104 103 102 102 101 101 100 100 99 99 98 98 97 97 96 96 96 96 96 96 95 95 95 95 96 96 97 97 97 98 98 98 98 99 100 100 101 101 102 103 104 104 105 105 106 106 107 107 107 108 108 109 109 110 110 110 111 111 111 111 111 111 111 112 112 112 112 112 112 113 113 113
106 106 106 106 105 105 105 105 104 104 104 103 103 102 101 101 100 100 99 99 98 97 97 97 96 96 95 94 94 93 93 93 93 93 93 93 92 92 92 93 93 93 93 94 94 95 95 95 96 97 97 97 98 98 99 100 100 101 102 102 102 103 103 104 104 104 105 105 106 106 107 107 107 108 108 108 109 109 109 109 110 110 111 111 111 112
105 104 104 104 103 103 103 102 102 101 101 100 100 99 99 98 98 97 97 96 95 95 94 94 93 93 92 92 91 90 90 90 90 90 90 90 90 90 90 90 90 90 91 91 91 91 92 92 92 93 93 93 94 94 95 95 96 97 97 97 98 98 99 99 100 100 100 101 101 102 102 103 103 104 104 104 105 105 106 106 107 107 107 108 109 109
103 102 102 101 101 100 100 99 99 98 98 97 97 97 96 96 95 95 94 93 93 92 92 91 91 90 90 89 88 88 87 87 87 87 87 87 87 87 87 87 88 88 88 88 88 88 88 88 88 89 89 89 90 90 91 91 92 92 93 93 94 95 95 95 95 96 96 96 97 97 98 98 99 99 100 100 101 101 102 102 103 103 104 104 105 106
100 100 99 99 98 97 97 96 96 95 95 95 94 94 94 93 93 92 92 91 91 90 89 89 88 88 87 86 85 85 84 84 84 84 84 84 84 84 84 84 85 85 85 85 85 85 85 85 85 85 85 85 86 86 87 88 88 88 89 90 90 91 91 91 92 92 92 92 93 93 94 94 95 95 96 96 97 97 97 98 99 99 100 100 101 102
98 97 97 96 95 95 94 94 93 93 92 92 92 92 91 91 91 91 90 90 89 88 87 86 86 85 85 84 83 82 81 81 81 81 81 81 81 81 81 81 81 81 81 81 81 82 82 82 82 82 82 82 82 83 83 84 84 85 85 85 86 87 87 88 88 88 88 89 89 89 90 90 91 91 91 92 92 93 93 94 95 96 96 97 97 98
95 95 94 93 93 92 92 91 91 91 90 90 90 90 89 89 89 89 88 88 87 86 85 84 84 83 83 82 81 80 79 78 78 78 78 77 77 77 77 78 78 78 78 78 78 79 79 79 79 79 79 79 79 79 80 80 81 81 81 82 82 83 84 84 85 85 85 85 85 85 86 86 86 87 87 88 88 89 90 90 91 92 93 93 94 95
92 92 91 91 90 90 90 89 89 89 88 88 88 88 87 87 87 86 86 86 85 84 84 83 82 81 81 80 79 78 77 76 76 75 75 75 74 74 74 74 74 74 74 75 75 75 75 75 75 75 75 75 75 76 76 77 77 78 78 78 78 79 80 81 82 82 82 82 82 82 82 82 83 83 83 84 85 85 86 87 88 89 89 90 91 92
89 89 88 88 88 87 87 87 87 87 86 86 85 85 85 84 84 84 84 84 83 83 82 81 81 80 79 79 78 77 76 75 74 73 72 72 72 72 72 72 71 71 71 71 72 72 72 72 72 72 72 72 72 72 73 73 74 74 75 75 75 76 76 77 78 79 79 79 79 79 79 79 79 79 80 81 81 82 83 84 84 85 86 87 88 89
86 86 86 85 85 85 85 84 84 84 84 83 83 83 82 82 82 82 81 81 81 80 80 79 79 78 78 77 76 75 74 73 72 71 70 69 69 69 69 69 69 69 68 68 68 68 68 68 69 68 68 68 68 68 69 69 70 70 71 71 72 73 73 74 75 76 76 76 76 76 75 75 75 76 76 77 78 79 79 80 81 82 83 84 85 85
84 83 83 83 83 82 82 82 82 81 81 81 80 80 79 79 79 79 79 79 78 78 78 77 76 76 75 75 74 73 72 71 70 69 68 67 67 66 66 66 66 66 65 65 65 65 65 65 65 65 64 64 64 64 65 65 66 66 67 68 69 69 70 71 71 72 72 72 72 72 72 72 72 72 73 74 74 75 76 77 78 79 79 80 81 82
81 81 81 80 80 80 79 79 79 79 78 78 78 77 77 76 76 76 76 76 75 75 75 74 74 73 73 72 71 70 70 69 68 67 66 65 65 64 64 63 63 62 62 62 62 62 62 62 61 61 61 60 60 60 61 61 62 63 63 64 65 66 67 67 68 68 69 69 69 69 69 69 69 69 69 70 71 72 73 73 74 75 76 77 78 79
79 79 78 78 78 77 77 77 76 76 76 75 75 75 74 74 73 73 73 73 72 72 72 71 71 70 70 69 68 67 67 66 66 65 64 63 63 62 61 61 60 60 59 59 59 59 59 58 58 58 57 57 57 57 57 58 59 60 60 61 61 62 63 64 64 64 65 65 65 65 65 65 65 65 66 66 67 68 69 70 71 72 73 74 74 75
77 77 76 76 75 75 75 74 74 73 73 73 72 72 71 71 70 70 69 69 69 68 68 68 67 67 66 66 65 64 64 63 63 62 62 61 60 60 59 58 58 57 57 57 56 56 56 55 55 55 54 54 53 54 54 55 56 56 57 57 58 58 59 59 60 60 61 61 61 61 61 62 62 62 62 63 63 64 66 67 68 69 69 70 71 72
75 75 74 74 73 73 72 72 71 71 70 70 69 69 68 67 67 66 66 65 65 65 64 64 64 63 63 62 62 61 61 60 60 59 59 58 58 57 56 56 55 55 55 54 54 54 53 53 52 52 51 50 50 51 51 52 53 53 54 54 54 54 55 55 55 56 56 57 57 57 58 58 58 58 58 59 60 61 62 64 65 66 66 67 67 68
Wind_Direction
281 281 281 281 281 281 281 280 280 280 280 280 280 280 281 281 281 281 281 281 281 281 281 282 282 282 282 282 282 282 283 283 283 283 283 283 283 283 284 284 284 284 284 284 285 285 285 285 285 286 286 286 286 286 286 286 286 286 286 287 287 286 286 285 285 286 287 288 289 289 289 288 288 288 288 287 287 287 288 288 288 287 287 287 287 286
280 280 280 280 280 280 280 280 280 280 280 280 280 281 281 281 281 281 281 281 281 281 281 281 281 281 281 281 282 282 282 282 282 282 282 282 282 282 283 283 283 283 283 283 284 284 284 284 284 284 285 285 285 285 285 285 285 285 285 285 285 285 284 283 284 285 286 286 287 287 287 287 287 287 287 287 287 287 287 287 287 287 286 286 286 285
279 279 279 279 279 279 279 279 280 280 280 280 281 281 281 281 281 281 281 281 281 281 281 281 281 281 281 281 281 281 281 282 282 282 282 282 282 282 282 282 282 282 282 282 282 283 283 283 283 283 283 284 284 284 284 284 284 284 284 284 284 283 282 282 282 283 284 284 284 284 284 285 285 285 285 285 285 285 286 286 286 285 285 285 285 284
278 278 278 279 279 279 279 280 280 280 281 281 281 281 281 281 281 281 281 281 281 281 281 281 281 281 281 281 281 281 281 281 281 281 282 282 282 282 282 282 282 282 282 282 282 282 282 282 282 282 282 282 283 283 283 283 283 283 282 282 282 282 281 281 281 281 282 281 281 281 281 282 282 283 283 283 284 284 284 284 284 284 284 283 283 283
278 278 278 279 279 280 280 280 280 281 281 281 281 281 281 281 281 281 281 281 281 281 281 281 281 281 281 281 281 281 281 281 281 281 281 282 282 282 282 282 281 281 281 281 281 281 281 281 281 281 281 281 281 281 281 281 281 281 281 281 280 280 280 280 280 280 280 279 279 279 279 279 279 280 280 281 281 282 282 282 282 282 282 282 281 281
279 279 279 279 280 280 280 280 281 281 281 281 281 281 281 281 281 281 281 281 281 281 281 281 281 281 281 281 281 281 281 281 281 281 281 281 281 281 281 281 281 281 281 281 281 281 281 281 281 281 281 281 280 280 280 280 280 280 279 279 279 279 278 278 278 278 278 278 278 277 277 277 277 277 277 278 279 279 280 280 280 280 280 279 279 278
279 280 280 280 280 280 280 280 280 280 281 281 281 281 281 281 281 281 281 281 281 282 282 282 282 282 282 282 281 281 281 281 281 281 281 281 281 281 281 281 281 281 281 281 281 281 281 280 280 280 280 280 280 279 279 279 279 279 278 278 278 277 277 277 277 277 277 276 276 276 276 275 275 275 275 276 276 277 277 277 278 278 278 277 277 276
280 280 280 280 280 280 280 280 280 280 280 281 281 281 281 281 281 282 282 282 282 282 282 282 282 282 282 282 282 282 281 281 281 281 281 281 281 281 281 281 281 281 281 281 281 280 280 280 280 280 279 279 279 279 278 278 278 278 277 277 277 276 276 276 276 276 275 275 275 275 275 274 274 274 274 274 274 275 275 275 275 276 275 275 275 274
280 280 280 280 280 280 280 280 280 280 281 281 281 281 281 281 282 282 282 282 282 282 282 282 282 282 282 282 281 281 281 281 281 281 281 281 281 281 281 281 281 281 281 280 280 280 280 280 279 279 279 279 278 278 278 278 277 277 277 276 276 276 275 275 275 275 274 274 274 274 274 273 273 273 273 273 273 273 273 273 274 274 273 273 273 272
280 280 280 280 280 280 280 280 281 281 281 281 281 281 281 281 282 282 282 282 282 282 282 282 282 282 282 282 282 281 281 281 281 281 281 281 281 281 281 281 280 280 280 280 280 280 280 279 279 279 278 278 278 278 277 277 277 277 276 276 276 275 275 275 274 274 274 273 273 273 273 272 272 272 272 272 272 272 272 272 272 272 272 271 271 270
280 280 281 281 281 281 281 281 281 281 281 281 281 281 281 281 281 281 282 282 282 282 282 282 282 282 282 282 282 281 281 281 281 281 281 281 281 281 280 280 280 280 280 280 279 279 279 279 278 278 278 278 277 277 277 277 276 276 276 276 275 275 275 274 274 273 273 273 272 272 271 271 271 271 271 271 271 271 271 271 270 270 270 270 269 269
281 281 281 281 281 281 281 281 281 281 281 281 281 281 281 281 281 281 281 282 282 282 282 282 282 282 282 282 281 281 281 281 281 281 281 280 280 280 280 280 280 280 279 279 279 279 278 278 278 278 277 277 277 277 276 276 276 276 276 275 275 275 274 274 273 273 272 272 271 271 271 270 270 270 270 270 270 270 269 269 269 269 268 268 268 267
281 281 281 281 281 281 282 282 282 281 281 281 281 281 281 282 282 282 282 281 282 282 282 282 282 282 282 281 281 281 281 281 280 280 280 280 280 280 280 279 279 279 279 279 279 278 278 278 277 277 277 277 276 276 276 276 275 275 275 275 274 274 274 273 273 272 272 271 271 270 270 270 269 269 269 269 269 269 268 268 268 268 267 267 266 266
281 281 281 282 282 282 282 282 282 282 282 282 282 282 282 282 282 282 282 282 282 282 282 282 281 281 281 281 281 281 280 280 280 280 280 280 279 279 279 279 279 279 279 278 278 278 278 277 277 277 277 276 276 276 275 275 275 275 274 274 274 274 273 273 272 272 272 271 270 270 269 269 269 268 268 268 268 268 267 267 267 266 266 266 265 265
281 282 282 282 282 282 282 282 282 282 282 282 282 282 282 282 282 282 282 282 282 282 281 281 281 281 281 281 280 280 280 280 279 279 279 279 279 279 279 279 279 279 278 278 278 277 277 277 277 276 276 276 275 275 275 275 274 274 274 273 273 273 273 272 272 271 271 270 270 269 269 268 268 268 268 267 267 267 267 266 266 265 265 264 264 264
282 282 282 282 282 282 282 282 282 282 282 282 282 282 282 282 282 282 282 281 281 281 281 281 280 280 280 280 280 280 280 279 279 279 279 279 279 279 279 279 279 278 278 278 277 277 277 276 276 276 276 275 275 275 274 274 274 274 273 273 273 272 272 272 271 271 270 270 269 269 268 268 268 267 267 266 266 266 266 265 265 265 264 264 263 263
282 282 282 282 282 282 282 282 282 282 282 282 282 282 282 282 282 282 281 281 281 281 281 280 280 280 280 280 280 280 280 280 280 280 279 279 279 279 279 279 278 278 278 278 277 277 277 276 276 275 275 275 275 274 274 274 273 273 273 273 272 272 271 271 270 270 269 269 269 268 268 267 267 266 266 266 265 265 265 265 264 264 263 263 263 262
282 282 282 282 282 282 282 282 282 282 282 282 282 282 282 282 282 281 281 281 281 281 281 281 281 281 281 281 281 281 280 280 280 280 280 279 279 279 279 279 278 278 278 277 277 277 276 276 276 275 275 275 274 274 274 273 273 273 272 272 272 271 271 270 270 269 269 268 268 267 267 266 266 266 265 265 265 264 264 264 264 263 263 263 262 262
282 282 282 282 282 282 282 282 282 282 282 282 282 282 282 282 282 282 282 282 282 282 282 282 282 281 281 281 281 281 280 280 280 280 279 279 279 279 278 278 278 277 277 277 276 276 276 276 275 275 275 275 274 274 273 273 273 272 272 271 271 271 270 270 269 269 268 268 267 267 266 266 265 265 265 264 264 264 263 263 263 263 263 262 262 261
282 282 282 282 283 283 283 283 283 283 283 283 283 283 283 283 283 283 283 282 282 282 282 282 281 281 281 280 280 280 280 279 279 279 278 278 278 278 278 277 277 277 277 276 276 276 276 275 275 275 275 274 274 274 273 273 272 272 271 271 270 270 270 269 269 268 268 268 267 267 266 266 265 265 264 264 264 263 263 263 263 262 262 262 262 261
283 283 283 283 283 283 283 283 283 283 283 283 283 283 283 283 283 283 283 283 282 282 282 281 281 281 280 280 280 280 279 279 278 278 278 278 278 277 277 277 277 277 276 276 276 276 276 275 275 275 275 274 274 274 273 273 272 272 271 271 270 270 269 269 268 268 268 267 267 266 266 266 265 265 264 264 263 263 263 262 262 262 262 261 261 261
283 283 283 283 283 283 283 283 283 283 283 283 283 283 283 283 283 283 283 283 283 282 282 282 281 281 281 281 280 280 279 279 279 278 278 278 278 277 277 277 277 277 277 276 276 276 276 275 275 275 275 274 274 274 273 273 272 272 271 271 270 270 269 269 268 268 267 267 267 266 266 266 265 265 264 264 263 263 263 262 262 262 261 261 261 261
283 283 283 283 283 283 283 283 283 284 284 283 283 283 283 283 283 283 283 283 283 283 282 282 282 282 281 281 281 280 280 279 279 279 279 278 278 278 278 277 277 277 277 276 276 276 276 276 276 276 275 275 275 274 274 273 273 272 272 271 271 270 269 269 268 268 267 267 266 266 266 265 265 265 264 264 263 263 262 262 262 261 261 261 261 260
284 284 284 284 284 284 284 284 284 284 284 284 283 283 283 283 283 283 283 283 282 282 282 282 282 282 281 281 281 280 280 280 279 279 279 279 278 278 278 277 277 277 277 276 276 276 276 276 276 276 276 275 275 275 274 274 273 273 272 271 271 270 270 269 269 268 267 267 266 266 265 265 264 264 264 263 263 262 262 262 261 261 261 260 260 260
284 285 284 284 284 284 284 284 284 284 284 283 283 283 283 283 283 283 282 282 282 282 282 282 281 281 281 281 281 280 280 280 280 279 279 279 279 278 278 278 277 277 277 276 276 276 276 276 276 276 276 275 275 275 274 274 273 273 272 272 271 271 270 269 269 268 268 267 266 266 265 265 264 264 263 263 262 262 262 261 261 261 260 260 260 259
286 286 286 285 285 285 285 285 284 284 284 284 283 283 283 283 283 283 283 282 282 282 282 281 281 281 281 281 280 280 280 280 279 279 279 279 279 278 278 278 277 277 277 276 276 276 276 276 275 275 275 275 274 274 274 274 273 273 272 272 271 271 270 269 269 268 268 267 267 266 265 265 264 264 263 263 262 262 261 261 261 260 260 260 259 259
287 287 286 286 286 286 286 285 285 285 285 284 284 284 284 283 283 283 283 282 282 282 282 281 281 280 280 280 279 279 279 279 279 279 278 278 278 278 278 277 277 277 276 276 276 276 275 275 275 275 274 274 274 274 273 273 273 273 272 272 271 271 270 270 269 269 268 267 267 266 266 265 265 264 263 263 262 261 261 261 260 260 260 259 259 258
287 287 287 287 287 286 286 286 286 285 285 285 284 284 284 283 283 283 282 282 282 282 281 281 280 280 280 279 279 279 279 278 278 278 278 277 277 277 277 277 276 276 276 275 275 275 275 274 274 274 273 273 273 273 273 272 272 272 272 272 271 271 270 270 269 269 268 268 267 266 266 265 265 264 263 263 262 261 261 260 260 259 259 259 258 258
288 287 287 287 287 286 286 286 286 285 285 285 285 284 284 284 283 283 282 282 282 281 281 280 280 280 279 279 279 278 278 278 278 277 277 277 276 276 276 276 275 275 275 274 274 274 274 273 273 272 272 272 272 272 272 272 272 271 271 271 271 271 270 270 269 269 268 268 267 267 266 266 265 264 264 263 262 261 261 260 260 259 259 258 258 258
288 288 287 287 287 287 286 286 286 286 285 285 285 284 284 284 283 283 283 282 282 282 281 281 280 280 280 279 279 279 278 278 278 277 277 277 276 276 276 275 275 274 274 274 273 273 273 272 272 272 271 271 271 271 271 271 271 271 270 270 270 270 270 270 269 269 268 268 267 267 266 266 265 265 264 263 262 262 261 260 260 259 258 258 258 257
288 288 288 287 287 287 287 286 286 286 285 285 285 285 284 284 284 283 283 283 282 282 282 281 281 280 280 280 279 279 278 278 278 278 278 277 277 276 276 275 275 274 274 273 273 272 272 272 272 271 271 271 270 270 270 270 270 270 270 270 270 270 269 269 269 269 268 268 267 267 266 266 265 265 264 263 263 262 261 261 260 259 258 258 257 257
289 288 288 288 288 287 287 287 287 286 286 286 285 285 285 284 284 284 283 283 283 282 282 281 281 281 280 280 279 279 278 278 278 278 278 277 277 276 276 275 275 275 274 274 273 272 272 272 271 271 271 270 270 270 270 269 269 269 269 269 269 269 269 269 268 268 268 268 267 267 266 266 265 265 264 263 263 262 261 261 260 259 259 258 257 257
289 289 289 289 289 288 288 288 288 287 287 287 286 286 286 285 285 284 284 284 283 283 282 282 282 281 281 280 280 279 279 278 278 278 278 277 277 276 276 276 275 275 274 274 273 273 272 272 271 271 271 271 270 270 269 269 269 269 269 268 268 268 268 268 268 268 267 267 267 266 266 265 265 264 264 263 263 262 261 261 260 260 259 258 257 257
290 290 290 290 290 290 290 289 289 289 289 288 288 287 287 287 286 286 285 285 284 284 284 283 283 282 282 281 281 280 280 279 279 279 278 278 277 277 276 276 275 275 274 274 274 273 272 272 271 271 271 270 270 270 269 269 269 269 268 268 268 268 267 267 267 267 267 266 266 266 265 265 264 264 263 263 262 262 261 261 260 259 259 258 257 257
292 292 292 292 292 291 291 291 291 290 290 290 289 289 288 288 288 287 287 286 286 285 285 284 284 283 283 282 282 281 281 280 280 279 279 278 278 277 277 276 276 275 275 274 274 273 273 272 271 271 270 270 270 270 269 269 269 268 268 268 267 267 267 267 266 266 266 266 266 265 265 264 264 263 263 262 262 261 261 260 260 259 258 258 257 257
294 293 293 293 293 293 292 292 292 291 291 291 290 290 290 289 289 288 288 288 287 287 286 286 285 284 284 283 283 282 282 281 281 280 280 279 278 278 277 276 276 276 275 275 274 273 273 272 272 271 270 270 269 269 269 269 269 268 268 268 267 267 267 266 266 266 265 265 265 265 264 264 264 263 263 262 261 261 260 260 259 258 258 257 257 256
295 294 294 294 294 293 293 293 292 292 292 292 291 291 291 290 290 289 289 289 288 288 287 287 286 285 285 284 284 283 283 283 282 281 281 280 279 278 278 277 277 276 275 275 274 274 273 272 272 271 271 270 269 269 269 269 269 268 268 268 267 267 267 266 266 266 265 265 265 264 264 264 263 263 262 262 261 261 260 259 259 258 257 257 256 256
295 295 294 294 294 294 293 293 293 293 292 292 292 291 291 291 290 290 289 289 289 288 288 287 287 286 286 285 285 284 284 283 283 282 282 281 280 279 279 278 277 277 276 275 275 274 273 273 272 272 271 271 270 270 270 269 269 269 268 268 268 267 267 266 266 266 265 265 264 264 264 263 263 263 262 262 261 261 260 259 259 258 257 257 256 255
295 295 295 294 294 294 294 293 293 293 293 292 292 292 292 291 291 290 290 290 289 289 288 288 287 287 286 286 286 285 284 284 283 283 282 282 281 280 279 279 278 277 276 276 275 274 274 273 273 272 272 272 271 271 270 270 269 269 269 268 268 267 267 266 266 266 265 265 264 264 264 263 263 262 262 262 261 261 260 259 259 258 257 257 256 255
296 295 295 295 295 294 294 294 294 293 293 293 293 292 292 292 291 291 291 290 290 289 289 288 288 287 287 286 286 285 285 284 284 283 282 282 281 281 280 279 279 278 277 277 276 275 275 274 274 273 273 272 272 271 271 270 270 269 269 268 268 268 267 267 266 266 265 265 264 264 263 263 262 262 262 261 261 260 260 259 259 258 257 257 256 255
296 296 296 296 295 295 295 295 294 294 294 294 293 293 293 293 292 292 291 291 291 290 290 289 289 288 288 287 287 286 285 285 284 284 283 282 282 281 281 280 279 279 278 278 277 277 276 276 275 274 274 273 272 272 271 271 270 270 269 268 268 268 267 267 266 266 265 265 264 263 263 262 262 262 261 261 260 260 260 259 259 258 257 257 256 255
297 297 297 296 296 296 296 296 295 295 295 295 294 294 294 294 293 293 293 292 292 291 291 290 290 289 289 288 288 287 286 286 285 284 284 283 283 282 282 281 281 280 280 279 279 278 277 276 276 275 274 273 273 272 271 271 270 270 269 269 268 268 268 267 267 266 265 265 264 263 263 262 262 261 261 260 260 259 259 258 258 257 257 256 255 254
298 298 298 297 297 297 297 297 296 296 296 296 295 295 295 294 294 294 293 293 293 293 292 292 291 291 290 290 289 288 288 287 286 286 285 285 284 283 283 282 282 281 281 280 279 278 278 277 276 275 275 274 273 273 272 271 271 270 270 269 268 268 268 267 267 266 265 265 264 263 262 262 261 261 260 260 259 259 258 257 257 256 256 255 255 254
299 298 298 298 298 298 298 297 297 297 297 296 296 296 295 295 295 295 294 294 294 294 293 293 292 292 291 291 291 290 289 289 288 287 287 286 285 285 284 283 283 282 281 280 280 279 278 277 277 276 275 275 274 273 273 272 271 271 270 270 269 268 267 267 267 266 265 265 264 263 262 262 261 260 260 259 258 258 257 256 256 255 255 254 254 253
299 299 299 299 299 298 298 298 298 297 297 297 296 296 296 296 295 295 295 295 295 294 294 294 293 293 293 292 292 291 291 290 290 289 288 288 287 286 285 285 284 283 282 281 280 280 279 278 277 277 276 275 275 274 273 273 272 271 271 270 269 268 267 267 266 266 265 264 264 263 262 262 261 260 259 258 258 257 256 256 255 254 254 253 252 252
300 299 299 299 299 299 298 298 298 298 297 297 297 297 296 296 296 296 295 295 295 295 295 294 294 294 294 293 293 293 292 292 291 291 290 289 288 287 286 286 285 284 283 282 281 281 280 279 278 278 277 276 275 275 274 273 272 272 271 270 269 268 268 267 266 266 265 265 264 263 262 262 261 260 259 258 257 257 256 255 254 253 253 252 252 251
300 300 300 300 299 299 299 299 298 298 298 298 297 297 297 297 297 296 296 296 296 295 295 295 295 295 294 294 294 294 293 293 293 292 291 290 289 288 287 286 286 285 284 284 283 282 281 280 280 279 278 277 276 275 275 274 273 272 271 270 269 269 268 267 266 266 265 265 264 264 263 262 261 260 259 258 257 256 256 255 254 253 252 252 251 250
301 301 301 300 300 300 300 299 299 299 299 298 298 298 298 297 297 297 296 296 296 296 296 295 295 295 295 295 295 294 294 294 293 293 292 291 290 289 288 288 287 286 286 285 284 283 283 282 281 280 279 279 278 277 276 275 273 272 271 270 269 268 268 267 266 266 266 265 265 264 263 262 261 260 259 258 257 257 256 255 254 253 252 251 251 250
302 302 302 302 301 301 301 300 300 300 299 299 299 299 298 298 298 297 297 297 296 296 296 296 296 295 295 295 295 295 294 294 294 293 292 292 291 290 290 289 289 288 287 286 285 285 284 283 282 281 281 280 279 278 277 276 274 273 272 270 269 269 268 268 267 267 266 266 265 265 264 263 262 261 260 258 258 257 256 255 254 253 252 251 250 250
304 303 303 303 302 302 302 301 301 301 300 300 300 299 299 299 298 298 297 297 297 296 296 296 296 296 296 295 295 295 294 294 294 293 293 293 292 292 291 291 290 289 289 288 287 286 285 285 284 283 282 281 280 279 278 277 275 274 273 271 270 270 269 269 268 268 267 267 266 265 264 263 262 261 260 259 258 257 256 255 253 252 251 250 250 249
305 305 304 304 304 303 303 303 302 302 301 301 301 300 300 299 299 298 298 298 297 297 297 296 296 296 296 296 295 295 295 294 294 294 294 293 293 293 293 292 291 291 290 289 289 288 287 286 285 284 284 283 282 281 279 278 276 275 274 273 272 271 271 270 269 269 268 267 266 265 265 264 263 262 260 259 258 256 255 254 253 252 251 250 249 248
Height
10551 10547 10545 10544 10543 10541 10538 10536 10535 10535 10533 10530 10529 10528 10528 10526 10524 10523 10521 10520 10518 10516 10514 10513 10511 10509 10508 10506 10505 10504 10503 10502 10501 10501 10500 10499 10499 10498 10498 10497 10496 10494 10494 10493 10492 10492 10492 10491 10491 10491 10489 10489 10489 10489 10490 10491 10491 10491 10491 10491 10493 10494 10495 10494 10492 10489 10487 10485 10484 10484 10484 10486 10488 10491 10492 10494 10494 10496 10496 10498 10499 10500 10501 10502 10503 10505
10542 10539 10538 10536 10534 10533 10529 10526 10526 10526 10524 10522 10520 10519 10519 10518 10516 10514 10513 10511 10510 10508 10506 10505 10503 10502 10500 10498 10497 10496 10494 10494 10493 10492 10491 10491 10491 10490 10489 10489 10488 10487 10486 10485 10485 10485 10485 10484 10484 10483 10481 10481 10481 10481 10482 10483 10483 10483 10484 10484 10485 10486 10487 10486 10484 10483 10483 10481 10480 10478 10477 10478 10480 10482 10483 10485 10487 10488 10489 10490 10491 10493 10494 10494 10496 10498
10533 10531 10529 10527 10526 10524 10521 10518 10517 10517 10516 10514 10513 10511 10511 10509 10507 10504 10503 10502 10501 10499 10498 10498 10496 10494 10492 10491 10489 10488 10487 10486 10484 10484 10483 10483 10482 10481 10481 10481 10480 10479 10479 10478 10477 10477 10477 10476 10476 10475 10474 10474 10474 10474 10474 10475 10476 10476 10476 10477 10478 10478 10479 10478 10476 10476 10476 10476 10476 10474 10473 10472 10473 10474 10475 10477 10479 10481 10482 10483 10484 10486 10486 10488 10489 10490
10525 10524 10521 10518 10517 10516 10513 10511 10509 10509 10507 10506 10504 10503 10501 10500 10498 10496 10494 10493 10492 10491 10489 10489 10488 10486 10484 10483 10482 10481 10479 10478 10477 10476 10474 10474 10473 10473 10473 10472 10472 10471 10471 10470 10469 10469 10468 10468 10468 10467 10467 10467 10467 10467 10467 10468 10468 10468 10469 10469 10470 10470 10470 10470 10469 10469 10469 10471 10471 10470 10469 10468 10468 10468 10468 10469 10471 10473 10474 10476 10478 10479 10480 10481 10482 10483
10517 10516 10513 10511 10509 10508 10505 10503 10502 10501 10498 10497 10495 10494 10493 10491 10489 10488 10486 10485 10484 10482 10481 10480 10479 10479 10477 10475 10474 10473 10472 10470 10469 10468 10467 10466 10465 10464 10464 10463 10463 10463 10462 10462 10461 10461 10461 10460 10459 10459 10459 10459 10459 10459 10459 10459 10460 10461 10461 10461 10462 10462 10462 10462 10462 10462 10463 10463 10464 10464 10464 10464 10463 10463 10463 10464 10464 10466 10468 10469 10470 10472 10473 10474 10475 10476
10508 10508 10506 10504 10503 10500 10498 10496 10494 10492 10490 10488 10486 10484 10483 10482 10480 10479 10478 10476 10475 10474 10473 10472 10471 10470 10469 10468 10466 10464 10464 10462 10461 10459 10459 10458 10456 10456 10455 10454 10454 10454 10453 10453 10453 10452 10452 10451 10451 10451 10451 10451 10451 10451 10451 10451 10452 10452 10453 10453 10454 10454 10454 10454 10454 10454 10455 10456 10456 10457 10458 10458 10458 10458 10458 10458 10459 10459 10461 10462 10463 10465 10466 10468 10469 10470
10499 10499 10498 10497 10495 10493 10490 10489 10486 10484 10482 10480 10478 10476 10474 10473 10472 10471 10469 10468 10468 10466 10465 10464 10463 10462 10461 10459 10458 10456 10455 10454 10453 10451 10450 10449 10448 10447 10446 10446 10445 10444 10444 10444 10443 10443 10443 10443 10442 10442 10442 10442 10442 10442 10442 10443 10443 10443 10444 10444 10445 10445 10445 10445 10446 10446 10447 10448 10448 10448 10449 10450 10451 10451 10452 10452 10453 10453 10454 10456 10457 10458 10459 10461 10462 10463
10491 10490 10489 10489 10487 10484 10482 10480 10478 10476 10474 10472 10469 10468 10466 10464 10463 10462 10461 10460 10459 10458 10458 10456 10454 10453 10451 10451 10449 10448 10446 10445 10444 10443 10441 10440 10439 10438 10438 10437 10436 10435 10434 10434 10434 10433 10433 10433 10433 10433 10433 10433 10433 10432 10433 10433 10433 10434 10434 10435 10436 10436 10436 10437 10437 10438 10438 10439 10439 10440 10441 10442 10443 10444 10444 10445 10446 10446 10448 10449 10450 10451 10452 10453 10455 10456
10484 10482 10480 10479 10478 10476 10474 10471 10469 10468 10467 10465 10462 10459 10458 10457 10455 10453 10453 10452 10451 10449 10449 10448 10446 10444 10443 10441 10440 10439 10438 10436 10434 10433 10432 10431 10429 10429 10428 10428 10427 10426 10426 10425 10424 10424 10424 10423 10423 10423 10423 10423 10423 10423 10423 10423 10423 10424 10425 10426 10426 10427 10428 10428 10429 10429 10430 10431 10432 10433 10433 10434 10434 10435 10436 10437 10438 10439 10440 10441 10443 10444 10445 10446 10448 10449
10476 10474 10472 10470 10469 10468 10466 10463 10460 10458 10458 10457 10454 10452 10451 10449 10448 10446 10444 10443 10441 10440 10440 10439 10437 10435 10434 10432 10431 10430 10429 10427 10425 10424 10423 10422 10421 10419 10419 10418 10418 10417 10417 10416 10416 10415 10414 10414 10413 10413 10413 10413 10413 10413 10413 10413 10414 10414 10415 10416 10417 10418 10418 10419 10420 10421 10422 10423 10424 10424 10425 10426 10426 10427 10428 10429 10430 10431 10433 10434 10435 10436 10438 10439 10441 10442
10466 10465 10464 10462 10460 10458 10458 10455 10453 10451 10449 10448 10446 10443 10442 10441 10441 10439 10437 10434 10432 10431 10431 10429 10428 10426 10425 10423 10421 10420 10419 10418 10416 10414 10413 10413 10411 10411 10409 10409 10408 10408 10408 10407 10406 10406 10405 10404 10404 10403 10403 10403 10403 10403 10403 10404 10404 10405 10406 10406 10408 10408 10409 10410 10411 10412 10413 10414 10415 10416 10417 10418 10418 10419 10419 10421 10422 10423 10424 10426 10428 10429 10430 10432 10433 10434
10458 10456 10455 10453 10451 10449 10448 10446 10444 10443 10441 10439 10437 10434 10432 10431 10432 10431 10429 10426 10424 10423 10421 10420 10418 10417 10416 10414 10413 10411 10409 10408 10406 10404 10403 10403 10402 10401 10401 10400 10399 10398 10398 10398 10397 10396 10395 10394 10394 10394 10394 10394 10394 10394 10394 10394 10395 10396 10396 10397 10398 10399 10400 10401 10402 10403 10404 10406 10407 10408 10408 10409 10410 10411 10411 10413 10414 10416 10417 10418 10420 10421 10423 10424 10426 10428
10450 10448 10447 10445 10443 10441 10439 10437 10435 10433 10431 10429 10428 10426 10423 10422 10422 10422 10420 10418 10416 10415 10414 10412 10409 10408 10406 10405 10403 10401 10399 10398 10396 10394 10394 10393 10392 10391 10391 10391 10389 10389 10389 10388 10387 10386 10385 10385 10384 10384 10384 10384 10384 10384 10385 10386 10386 10387 10388 10388 10389 10390 10391 10392 10393 10394 10396 10397 10398 10399 10400 10401 10402 10403 10404 10405 10406 10408 10409 10411 10412 10414 10415 10417 10418 10420
10442 10440 10439 10436 10434 10432 10430 10428 10426 10424 10421 10420 10418 10417 10415 10414 10413 10412 10411 10408 10407 10406 10406 10404 10401 10398 10396 10395 10393 10391 10390 10388 10386 10385 10384 10383 10382 10382 10382 10381 10380 10379 10379 10379 10377 10376 10375 10376 10375 10374 10374 10375 10375 10375 10376 10376 10377 10378 10379 10379 10380 10381 10382 10383 10384 10386 10386 10388 10389 10390 10391 10393 10393 10394 10396 10397 10398 10399 10401 10403 10404 10406 10408 10409 10411 10413
10434 10433 10430 10428 10425 10423 10421 10419 10416 10414 10412 10410 10409 10408 10406 10404 10403 10402 10401 10399 10398 10396 10396 10394 10392 10389 10388 10386 10384 10382 10380 10378 10377 10376 10375 10374 10373 10372 10373 10372 10371 10369 10370 10369 10368 10366 10366 10366 10366 10365 10365 10366 10366 10366 10366 10368 10368 10369 10370 10371 10371 10373 10374 10374 10376 10377 10378 10379 10380 10381 10383 10384 10385 10386 10388 10389 10391 10392 10393 10395 10397 10398 10400 10402 10403 10405
10426 10424 10422 10419 10416 10414 10411 10409 10408 10405 10403 10401 10399 10398 10397 10395 10394 10393 10392 10390 10388 10387 10386 10384 10383 10380 10378 10376 10374 10373 10371 10369 10367 10366 10366 10365 10363 10363 10363 10363 10361 10360 10359 10359 10358 10357 10356 10356 10356 10356 10356 10356 10356 10357 10358 10358 10359 10360 10361 10362 10363 10364 10365 10366 10367 10368 10369 10370 10371 10373 10374 10375 10377 10378 10379 10381 10383 10384 10386 10387 10389 10391 10393 10394 10396 10398
10418 10415 10413 10410 10408 10404 10403 10401 10398 10396 10394 10392 10391 10389 10388 10386 10384 10383 10382 10380 10379 10378 10376 10375 10374 10372 10369 10366 10364 10363 10361 10360 10358 10357 10358 10357 10354 10353 10353 10354 10352 10350 10349 10349 10348 10347 10346 10346 10346 10346 10346 10347 10348 10348 10349 10349 10351 10351 10353 10353 10354 10356 10356 10358 10359 10359 10361 10362 10363 10364 10365 10367 10368 10369 10371 10373 10374 10376 10378 10379 10381 10383 10384 10386 10388 10390
10408 10406 10404 10401 10398 10395 10393 10391 10389 10387 10385 10383 10381 10380 10378 10376 10375 10374 10372 10371 10369 10368 10367 10366 10365 10363 10361 10358 10354 10352 10351 10351 10349 10348 10348 10348 10346 10344 10344 10344 10343 10341 10340 10340 10338 10337 10336 10336 10336 10336 10337 10338 10338 10339 10340 10341 10342 10343 10343 10344 10345 10346 10348 10349 10349 10351 10352 10353 10354 10355 10357 10358 10359 10361 10363 10364 10366 10368 10369 10371 10373 10374 10376 10378 10380 10383
10399 10396 10394 10391 10389 10386 10384 10383 10380 10378 10376 10374 10372 10371 10369 10367 10365 10364 10363 10361 10360 10359 10358 10358 10356 10354 10353 10350 10346 10343 10342 10342 10340 10338 10338 10338 10338 10336 10335 10335 10334 10332 10331 10330 10329 10328 10327 10326 10326 10326 10327 10328 10328 10329 10330 10331 10333 10333 10334 10335 10336 10337 10338 10339 10340 10341 10343 10344 10345 10346 10348 10349 10351 10353 10354 10356 10358 10359 10361 10363 10364 10366 10368 10370 10372 10374
10389 10387 10385 10383 10381 10378 10375 10373 10371 10369 10367 10364 10363 10362 10360 10358 10356 10355 10354 10352 10351 10351 10349 10348 10347 10345 10343 10341 10339 10335 10333 10333 10331 10329 10328 10329 10329 10328 10326 10326 10325 10323 10321 10321 10320 10319 10318 10317 10316 10316 10317 10318 10318 10319 10320 10321 10323 10323 10324 10326 10326 10328 10328 10329 10331 10331 10333 10334 10335 10337 10338 10340 10342 10344 10346 10348 10349 10351 10353 10355 10356 10358 10360 10362 10364 10366
10381 10378 10376 10375 10373 10371 10367 10364 10363 10361 10359 10356 10355 10353 10351 10349 10348 10347 10344 10343 10343 10341 10339 10338 10337 10336 10334 10333 10330 10326 10324 10324 10322 10319 10318 10319 10320 10318 10316 10317 10316 10314 10311 10311 10310 10309 10309 10308 10306 10306 10307 10308 10308 10308 10309 10311 10312 10313 10314 10315 10316 10318 10319 10319 10321 10322 10323 10324 10326 10327 10329 10331 10333 10335 10337 10339 10341 10343 10345 10347 10349 10350 10352 10354 10356 10358
10374 10371 10368 10367 10365 10363 10359 10356 10354 10353 10351 10349 10347 10345 10343 10341 10340 10338 10336 10334 10333 10332 10329 10328 10327 10326 10324 10323 10320 10316 10314 10313 10312 10310 10309 10310 10310 10308 10306 10308 10308 10305 10302 10301 10300 10300 10299 10298 10296 10296 10296 10297 10297 10298 10298 10299 10301 10301 10303 10304 10305 10307 10308 10309 10311 10313 10314 10315 10316 10318 10319 10321 10324 10326 10328 10330 10333 10334 10337 10338 10340 10342 10344 10346 10348 10350
10366 10363 10361 10359 10357 10355 10352 10349 10347 10344 10343 10341 10339 10337 10334 10333 10332 10330 10327 10325 10324 10322 10320 10318 10317 10316 10314 10312 10309 10306 10303 10301 10300 10300 10300 10300 10299 10297 10297 10299 10299 10296 10291 10290 10290 10290 10289 10287 10286 10286 10286 10286 10286 10286 10286 10288 10289 10290 10291 10293 10294 10295 10297 10299 10300 10302 10304 10305 10307 10308 10310 10312 10314 10316 10319 10321 10323 10326 10328 10330 10332 10333 10335 10338 10339 10341
10358 10356 10353 10351 10349 10347 10344 10342 10339 10337 10334 10333 10331 10329 10326 10325 10324 10321 10319 10316 10314 10313 10311 10309 10308 10306 10303 10301 10299 10296 10292 10289 10289 10290 10290 10288 10287 10287 10288 10289 10288 10285 10281 10279 10280 10281 10280 10278 10276 10275 10275 10274 10274 10273 10274 10275 10276 10278 10279 10281 10282 10283 10285 10287 10289 10291 10293 10294 10296 10298 10300 10303 10304 10307 10309 10311 10314 10316 10318 10320 10323 10324 10327 10329 10331 10333
10349 10347 10344 10343 10340 10338 10336 10333 10331 10328 10326 10324 10322 10320 10318 10316 10314 10312 10309 10307 10305 10303 10301 10300 10298 10296 10293 10291 10289 10286 10281 10278 10278 10279 10279 10277 10275 10276 10276 10277 10277 10275 10271 10269 10269 10271 10272 10269 10266 10264 10264 10264 10263 10261 10261 10263 10263 10264 10266 10268 10269 10271 10273 10274 10276 10278 10280 10283 10284 10287 10289 10291 10294 10296 10299 10301 10304 10306 10308 10311 10313 10315 10317 10319 10322 10324
10341 10338 10336 10333 10331 10329 10326 10324 10321 10319 10316 10314 10313 10311 10309 10307 10304 10302 10299 10296 10294 10293 10293 10291 10288 10285 10283 10281 10279 10275 10269 10267 10267 10268 10268 10266 10265 10264 10264 10264 10265 10265 10262 10258 10259 10261 10263 10259 10256 10254 10254 10253 10251 10249 10249 10250 10251 10251 10252 10254 10256 10258 10260 10262 10264 10266 10268 10270 10272 10274 10277 10280 10283 10286 10288 10291 10294 10296 10298 10300 10303 10304 10307 10309 10312 10314
10332 10329 10327 10324 10322 10319 10316 10314 10311 10309 10306 10304 10302 10300 10298 10297 10294 10291 10288 10284 10283 10283 10283 10279 10276 10274 10273 10271 10268 10264 10260 10258 10256 10256 10255 10256 10256 10254 10251 10250 10252 10253 10252 10248 10248 10250 10251 10249 10245 10243 10242 10241 10240 10238 10238 10238 10238 10238 10239 10240 10242 10244 10246 10248 10251 10253 10255 10258 10259 10262 10264 10268 10271 10274 10277 10280 10283 10285 10288 10289 10292 10294 10296 10299 10301 10304
10323 10320 10318 10315 10312 10309 10307 10304 10301 10298 10296 10293 10291 10289 10288 10286 10284 10281 10276 10273 10272 10273 10271 10267 10264 10263 10262 10259 10256 10253 10250 10248 10244 10243 10242 10245 10246 10244 10239 10238 10239 10242 10241 10238 10236 10238 10239 10238 10234 10231 10229 10229 10228 10227 10226 10226 10226 10226 10226 10227 10228 10230 10232 10234 10237 10239 10242 10244 10247 10249 10252 10254 10258 10261 10264 10268 10271 10274 10276 10278 10281 10283 10286 10288 10291 10293
10313 10311 10308 10305 10303 10299 10297 10294 10291 10288 10285 10283 10280 10278 10276 10274 10273 10270 10266 10262 10261 10261 10259 10254 10252 10251 10250 10248 10244 10241 10238 10235 10232 10229 10231 10234 10236 10233 10227 10226 10229 10230 10228 10226 10225 10226 10226 10224 10222 10220 10218 10217 10216 10215 10214 10214 10213 10213 10213 10214 10215 10216 10218 10220 10223 10225 10228 10231 10233 10236 10239 10242 10245 10248 10251 10255 10258 10261 10264 10267 10269 10272 10274 10278 10280 10283
10303 10301 10298 10295 10292 10289 10287 10284 10280 10278 10274 10272 10269 10267 10264 10263 10261 10258 10255 10252 10250 10248 10246 10243 10239 10238 10238 10236 10233 10229 10225 10221 10218 10218 10221 10223 10223 10218 10214 10214 10216 10217 10214 10213 10214 10215 10213 10209 10208 10208 10208 10206 10204 10203 10203 10202 10201 10200 10200 10201 10202 10203 10204 10206 10208 10211 10214 10216 10219 10223 10225 10228 10231 10234 10238 10241 10244 10248 10251 10254 10258 10260 10263 10266 10269 10272
10293 10289 10287 10284 10281 10278 10276 10273 10270 10267 10264 10261 10258 10256 10253 10251 10248 10246 10243 10241 10238 10236 10234 10231 10228 10226 10224 10223 10221 10217 10212 10207 10205 10206 10209 10211 10209 10205 10201 10202 10203 10202 10199 10199 10202 10204 10200 10195 10193 10194 10196 10194 10192 10190 10190 10190 10189 10188 10188 10188 10189 10191 10191 10193 10195 10198 10200 10203 10206 10208 10211 10214 10218 10221 10224 10228 10231 10234 10238 10241 10244 10248 10251 10254 10258 10261
10282 10279 10276 10273 10269 10266 10264 10261 10258 10255 10252 10249 10246 10244 10241 10238 10236 10233 10231 10228 10226 10224 10221 10219 10216 10213 10211 10210 10208 10205 10200 10196 10194 10194 10197 10198 10196 10192 10188 10188 10189 10188 10184 10184 10188 10190 10189 10183 10179 10179 10181 10181 10179 10178 10176 10177 10177 10177 10176 10176 10178 10178 10179 10179 10181 10184 10186 10188 10191 10194 10198 10201 10204 10207 10210 10213 10216 10220 10224 10227 10231 10234 10238 10242 10246 10249
10273 10269 10266 10262 10259 10255 10252 10249 10246 10243 10239 10236 10234 10231 10228 10226 10223 10221 10218 10216 10213 10211 10209 10206 10204 10201 10198 10196 10194 10192 10188 10185 10184 10184 10184 10185 10183 10179 10176 10175 10175 10174 10171 10170 10172 10174 10175 10173 10169 10167 10167 10167 10166 10164 10163 10163 10164 10164 10164 10164 10165 10166 10166 10166 10168 10170 10173 10174 10176 10179 10183 10186 10189 10192 10196 10199 10203 10206 10209 10213 10217 10221 10224 10229 10233 10236
10263 10259 10255 10252 10248 10244 10240 10237 10233 10230 10227 10224 10221 10218 10215 10212 10209 10207 10204 10203 10200 10198 10196 10193 10191 10188 10186 10183 10181 10178 10176 10173 10173 10173 10173 10172 10169 10167 10164 10162 10161 10160 10159 10158 10158 10159 10159 10159 10158 10156 10154 10153 10152 10151 10149 10149 10150 10151 10151 10153 10153 10153 10153 10153 10154 10157 10159 10160 10162 10164 10168 10171 10174 10177 10181 10184 10188 10191 10195 10199 10203 10206 10211 10215 10219 10223
10253 10249 10244 10241 10237 10233 10228 10224 10221 10218 10214 10211 10208 10205 10202 10199 10196 10194 10191 10189 10187 10184 10183 10180 10178 10176 10173 10171 10168 10166 10163 10161 10160 10161 10160 10159 10157 10154 10152 10149 10148 10146 10146 10145 10144 10144 10144 10144 10144 10143 10143 10141 10139 10137 10136 10136 10136 10138 10138 10139 10140 10141 10140 10141 10142 10144 10146 10147 10148 10151 10153 10156 10158 10162 10166 10169 10173 10177 10181 10184 10189 10193 10196 10201 10205 10209
10243 10238 10234 10230 10226 10221 10217 10213 10209 10206 10202 10199 10196 10193 10189 10187 10184 10181 10178 10176 10174 10171 10169 10167 10164 10163 10161 10159 10157 10154 10151 10149 10148 10148 10147 10146 10144 10143 10141 10138 10135 10134 10134 10133 10132 10131 10131 10131 10130 10129 10129 10129 10127 10124 10123 10123 10124 10125 10125 10126 10126 10126 10127 10128 10129 10131 10133 10134 10136 10137 10139 10141 10144 10147 10150 10154 10158 10161 10166 10170 10174 10178 10182 10186 10191 10195
10233 10228 10223 10219 10215 10211 10206 10202 10198 10194 10191 10187 10184 10181 10178 10175 10172 10169 10166 10164 10162 10159 10157 10154 10152 10150 10148 10147 10146 10143 10141 10138 10136 10134 10133 10133 10132 10131 10129 10126 10124 10123 10122 10121 10119 10118 10118 10118 10117 10116 10116 10115 10114 10113 10112 10111 10112 10113 10113 10112 10113 10113 10114 10116 10116 10118 10119 10122 10123 10124 10126 10128 10131 10133 10136 10139 10143 10147 10151 10155 10159 10163 10167 10171 10176 10180
10222 10218 10213 10209 10205 10201 10196 10192 10188 10184 10181 10177 10173 10169 10166 10164 10161 10158 10155 10153 10150 10148 10146 10143 10140 10138 10137 10136 10134 10133 10130 10128 10125 10123 10121 10119 10119 10118 10117 10114 10112 10111 10110 10109 10108 10106 10106 10105 10104 10103 10103 10103 10103 10102 10101 10101 10101 10101 10100 10100 10101 10102 10103 10103 10104 10106 10108 10109 10111 10112 10113 10116 10118 10120 10123 10125 10129 10133 10136 10140 10144 10148 10151 10156 10161 10165
10212 10208 10203 10199 10195 10191 10187 10183 10178 10174 10171 10167 10163 10159 10156 10153 10150 10147 10144 10142 10139 10137 10134 10132 10129 10128 10126 10124 10123 10122 10120 10118 10114 10112 10110 10108 10107 10106 10104 10103 10101 10099 10098 10097 10096 10095 10094 10093 10093 10092 10092 10091 10091 10091 10091 10090 10089 10089 10089 10089 10089 10090 10090 10091 10092 10094 10096 10098 10099 10100 10101 10103 10106 10108 10110 10113 10116 10119 10123 10126 10129 10133 10137 10141 10146 10150
10203 10198 10193 10189 10186 10181 10178 10173 10169 10165 10161 10158 10154 10150 10146 10143 10139 10136 10134 10131 10129 10126 10124 10121 10119 10117 10115 10114 10113 10111 10109 10108 10105 10103 10100 10098 10096 10094 10093 10091 10089 10088 10086 10086 10085 10084 10083 10083 10083 10082 10082 10081 10081 10080 10079 10079 10078 10078 10078 10078 10078 10078 10078 10079 10081 10083 10084 10086 10088 10089 10090 10092 10094 10096 10098 10101 10103 10106 10109 10112 10115 10119 10123 10128 10131 10136
10193 10188 10184 10180 10176 10172 10168 10164 10160 10156 10152 10148 10144 10140 10137 10133 10129 10126 10123 10120 10118 10116 10114 10111 10109 10106 10104 10103 10102 10101 10099 10097 10095 10093 10091 10089 10086 10084 10083 10081 10079 10078 10076 10075 10074 10074 10073 10073 10072 10071 10071 10071 10071 10069 10069 10068 10067 10067 10068 10068 10068 10067 10067 10068 10069 10071 10072 10074 10076 10078 10079 10080 10082 10084 10086 10089 10091 10094 10097 10100 10103 10106 10109 10113 10118 10121
10184 10179 10174 10171 10166 10163 10159 10155 10151 10147 10143 10139 10135 10131 10128 10124 10120 10116 10113 10109 10107 10105 10103 10101 10099 10096 10094 10093 10091 10091 10089 10087 10085 10083 10081 10079 10078 10075 10073 10072 10070 10069 10067 10066 10064 10063 10063 10062 10061 10061 10060 10060 10060 10059 10058 10057 10056 10056 10057 10058 10058 10058 10058 10058 10058 10059 10061 10063 10064 10066 10067 10069 10071 10073 10076 10078 10080 10083 10085 10088 10091 10093 10096 10099 10103 10107
10174 10170 10166 10162 10158 10154 10149 10146 10141 10138 10134 10130 10126 10123 10119 10115 10111 10107 10103 10100 10098 10095 10093 10091 10089 10086 10084 10082 10081 10080 10079 10078 10076 10074 10072 10070 10068 10066 10064 10063 10061 10060 10058 10057 10055 10053 10052 10051 10051 10050 10049 10050 10050 10049 10048 10047 10046 10046 10047 10048 10048 10049 10048 10047 10046 10048 10049 10051 10053 10054 10056 10058 10060 10062 10064 10067 10069 10071 10073 10076 10079 10081 10083 10086 10089 10093
10166 10162 10158 10154 10149 10145 10141 10137 10133 10129 10125 10121 10118 10114 10110 10106 10103 10099 10095 10091 10089 10086 10084 10081 10079 10077 10074 10072 10071 10069 10068 10068 10066 10065 10063 10061 10059 10058 10056 10054 10053 10051 10049 10048 10046 10044 10043 10041 10041 10040 10040 10041 10041 10040 10039 10038 10037 10037 10037 10038 10038 10039 10038 10037 10037 10037 10038 10039 10041 10043 10045 10047 10049 10052 10054 10056 10058 10059 10062 10064 10066 10069 10071 10074 10077 10080
10159 10154 10150 10146 10142 10138 10133 10129 10125 10121 10117 10113 10109 10106 10103 10099 10095 10091 10088 10084 10081 10078 10075 10073 10070 10068 10065 10063 10062 10060 10059 10058 10057 10056 10055 10053 10051 10049 10047 10045 10043 10041 10040 10038 10037 10035 10034 10033 10031 10031 10031 10031 10031 10031 10030 10029 10029 10028 10028 10028 10028 10029 10029 10028 10027 10027 10027 10028 10030 10033 10034 10037 10039 10042 10044 10045 10046 10048 10050 10053 10055 10057 10059 10062 10064 10068
10153 10148 10143 10139 10135 10131 10126 10122 10118 10114 10109 10106 10103 10099 10095 10091 10088 10084 10080 10077 10073 10070 10068 10065 10063 10060 10057 10055 10053 10052 10050 10049 10048 10047 10046 10044 10043 10040 10038 10036 10034 10033 10031 10029 10028 10027 10026 10024 10023 10023 10023 10023 10023 10023 10021 10021 10020 10019 10019 10019 10018 10018 10018 10018 10018 10018 10018 10019 10021 10023 10024 10027 10029 10032 10033 10034 10036 10038 10039 10042 10044 10046 10048 10051 10053 10056
10146 10141 10136 10132 10128 10124 10119 10115 10111 10107 10103 10099 10095 10092 10089 10085 10081 10077 10073 10070 10067 10064 10061 10058 10055 10053 10050 10048 10046 10044 10042 10041 10039 10038 10037 10036 10034 10032 10030 10028 10026 10025 10023 10022 10020 10019 10018 10017 10016 10015 10015 10014 10014 10014 10013 10013 10012 10011 10010 10010 10009 10009 10009 10009 10009 10009 10009 10011 10012 10013 10016 10018 10020 10022 10023 10025 10026 10028 10029 10031 10033 10036 10038 10040 10043 10046
10139 10134 10129 10125 10121 10117 10113 10109 10104 10100 10096 10092 10089 10085 10082 10078 10074 10071 10067 10064 10061 10058 10054 10051 10049 10046 10044 10041 10039 10037 10035 10033 10031 10030 10028 10027 10025 10024 10022 10021 10019 10018 10016 10014 10013 10011 10010 10009 10008 10008 10008 10008 10007 10006 10006 10004 10003 10003 10002 10001 10001 10000 10000 10000 10000 10001 10001 10003 10004 10005 10007 10009 10011 10013 10014 10016 10018 10019 10020 10022 10024 10026 10028 10031 10033 10036
10132 10128 10123 10119 10114 10110 10106 10102 10098 10094 10089 10086 10082 10079 10075 10072 10069 10065 10061 10058 10054 10051 10048 10045 10043 10040 10038 10035 10033 10031 10029 10027 10024 10023 10021 10019 10018 10016 10015 10014 10012 10011 10009 10008 10006 10004 10003 10002 10001 10001 10001 10001 10000 9999 9998 9996 9995 9994 9994 9993 9993 9993 9993 9993 9993 9993 9994 9995 9996 9998 9999 10001 10003 10004 10006 10008 10009 10010 10011 10013 10014 10016 10019 10021 10024 10026
10125 10121 10116 10112 10108 10104 10099 10096 10091 10088 10084 10079 10076 10073 10069 10066 10063 10059 10056 10052 10049 10046 10043 10040 10037 10034 10032 10029 10028 10025 10023 10021 10018 10016 10014 10013 10011 10009 10008 10007 10005 10004 10002 10001 9999 9998 9996 9996 9994 9994 9994 9994 9994 9993 9991 9989 9988 9986 9986 9986 9986 9986 9986 9986 9987 9987 9988 9989 9989 9991 9991 9993 9994 9996 9998 9999 10000 10001 10003 10004 10005 10006 10009 10012 10014 10017
10118 10114 10110 10106 10102 10098 10093 10089 10086 10082 10078 10074 10070 10067 10063 10060 10057 10053 10050 10047 10043 10040 10038 10034 10032 10029 10027 10024 10022 10019 10018 10015 10013 10011 10009 10007 10006 10004 10002 10000 9999 9998 9996 9994 9993 9991 9991 9989 9988 9988 9988 9988 9988 9986 9984 9982 9981 9980 9979 9979 9979 9980 9980 9981 9981 9981 9981 9982 9983 9983 9984 9986 9987 9989 9990 9991 9993 9993 9994 9994 9996 9998 10000 10003 10006 10009